Location: Newark
(32.9900°N, 111.5400°W)
Time: 19:19:25
(UTC+00:00)

N. Korean satellite - Pass Details

Date: 23 November 2019
Orbit: 456 x 506 km, 97.2° (Epoch: 07 December)

Event Time Altitude Azimuth Distance (km) Brightness Sun altitude
Rises 00:49:31 0° 177° (S) 2,549 10.5 -6.3°
Reaches altitude 10° 00:51:35 10° 182° (S) 1,680 9.6 -6.7°
Maximum altitude 00:55:08 55° 260° (W) 605 7.5 -7.4°
Drops below altitude 10° 00:58:46 10° 339° (NNW) 1,714 9.4 -8.1°
Sets 01:00:54 0° 344° (NNW) 2,607 10.3 -8.6°
